Cloud_Cover
2 10 100 68 100 100 100 100 100 100 100 100 100 100 100 100 100 100 100 96 99 100 100 55 98 85 100 100 100 100 100 59 90 100 84 100 5 41 74 89 92 88 33
0 5 100 36 100 100 98 100 100 100 100 100 100 100 100 100 100 100 100 95 16 38 100 100 80 100 100 100 100 98 84 98 64 98 97 25 43 66 23 19 14 30 10
3 5 83 97 68 100 98 100 100 100 100 100 99 100 94 100 100 75 83 48 98 96 100 100 100 100 100 100 100 100 100 99 100 84 18 69 100 73 99 19 22 5 6
4 4 5 5 75 63 78 93 100 100 100 100 100 100 100 35 46 7 13 5 72 71 58 49 98 100 100 100 99 100 84 100 100 100 97 59 70 87 59 58 40 99 99
1 0 5 3 8 66 100 88 100 100 100 100 100 100 55 25 5 94 52 85 88 92 89 98 100 93 100 76 80 100 93 100 100 50 96 85 91 99 79 100 100 100 71
0 0 0 0 3 44 100 100 100 100 100 100 100 100 94 80 100 100 100 100 100 100 100 88 100 100 100 99 82 79 98 69 71 65 98 60 60 97 100 100 96 6 7
0 0 0 3 0 48 100 100 100 100 100 100 100 100 100 100 78 100 100 95 82 100 99 62 55 78 28 98 95 96 94 42 100 47 78 72 85 100 100 43 5 0 0
0 0 0 0 0 1 54 100 100 100 100 100 100 100 100 100 100 100 97 100 100 100 98 17 100 99 100 100 100 79 98 100 89 64 49 100 72 32 5 0 0 0 0
6 2 4 4 0 2 5 5 56 100 100 100 100 100 100 100 100 100 100 93 89 100 79 25 49 51 58 29 31 43 56 99 89 35 86 4 1 0 0 0 0 0 0
80 31 40 83 0 0 5 13 89 96 79 100 95 84 83 100 83 58 32 34 97 99 100 100 67 12 85 96 63 60 84 47 17 3 0 0 0 0 0 0 0 0 4
92 100 46 100 83 0 4 31 15 10 37 65 57 95 100 100 100 100 99 100 100 100 73 77 5 20 50 83 43 57 2 0 2 4 2 0 0 0 0 0 0 5 5
41 64 17 54 49 0 0 12 86 100 100 47 5 42 35 16 40 93 89 70 100 100 100 100 64 84 10 38 5 0 1 5 76 100 74 48 1 0 0 0 0 0 0
0 23 4 1 2 0 0 39 100 100 64 25 93 100 94 96 99 29 50 98 66 82 14 10 26 35 0 2 0 2 99 99 100 100 100 100 100 98 72 4 0 0 0
0 0 0 0 0 0 0 84 100 100 40 56 100 100 100 100 100 100 100 100 60 10 4 1 1 10 0 0 0 100 100 100 100 99 100 92 100 100 100 100 24 0 0
1 0 0 0 0 0 0 1 97 100 88 99 100 100 100 99 100 100 100 32 5 0 2 5 1 53 68 1 46 100 100 100 100 100 100 100 100 100 98 100 92 0 0
0 0 0 0 0 6 5 0 42 54 9 100 86 100 99 96 100 100 42 3 0 5 5 32 100 100 100 100 100 100 100 100 100 100 100 100 100 100 100 93 100 25 0
0 0 0 0 0 30 0 1 4 5 52 86 97 100 100 100 100 96 3 0 3 15 98 100 100 100 100 100 100 100 100 100 100 100 100 100 100 100 100 100 100 67 83
5 0 0 0 0 69 30 0 4 1 8 100 99 77 100 87 26 5 0 3 4 100 100 100 100 38 18 100 100 100 100 100 100 100 100 100 100 100 100 100 100 14 100
9 0 0 0 0 0 0 0 0 0 5 100 100 100 100 49 67 5 0 0 100 100 100 56 52 59 100 100 100 100 100 100 100 100 100 100 100 100 100 100 100 98 31
5 7 5 0 0 0 0 75 99 0 0 12 76 100 100 70 82 0 1 4 92 100 100 100 97 5 37 94 100 100 100 100 100 100 100 100 100 100 100 100 100 100 92
26 89 45 9 3 0 47 0 0 0 17 5 27 100 100 20 21 0 0 29 18 98 96 30 47 95 16 5 94 63 98 100 100 100 100 100 100 100 100 100 100 100 100
12 87 45 50 5 1 5 100 17 15 5 5 90 71 2 5 5 5 9 1 2 4 6 24 100 76 99 76 36 97 40 100 100 100 100 100 100 100 100 100 100 100 75
22 91 85 16 46 69 0 0 0 0 12 4 0 0 4 5 6 5 2 0 0 5 89 91 100 98 41 81 96 92 99 100 100 100 100 100 100 100 100 100 100 100 100
7 84 100 29 29 68 4 0 0 0 0 0 0 0 1 5 13 5 0 0 5 20 58 100 100 100 100 100 96 100 100 100 100 100 100 100 99 100 100 100 100 100 100
74 31 85 100 5 5 5 5 2 0 0 0 0 0 0 0 1 5 6 9 1 5 29 97 91 66 100 100 100 100 100 100 100 93 34 68 25 10 95 100 100 100 100
35 24 72 64 13 43 18 5 5 1 0 0 0 0 0 1 0 0 0 52 1 1 79 14 30 99 100 100 100 100 100 100 98 82 98 100 90 98 95 100 100 100 100